FW0386 Weather Reports


Display with metric or nautical units.
time (UTC)temp
F
wind
direction
speed
MPH
gust
MPH
rain 1hr
in
rain 24hr
in
rain mn
in
humidity
%
barometer
mb
20260508160020 63 287 0.0 6.0 0.00 0.00 0.00 57 1017.1
20260508154524 63 240 1.0 4.0 0.00 0.00 0.00 56 1017.1
20260508151600 63 278 1.0 8.0 0.00 0.00 0.00 58 1017.3
20260508150019 62 283 1.0 5.0 0.00 0.00 0.00 58 1017.3
20260508144543 62 41 0.0 4.0 0.00 0.00 0.00 60 1017.5
20260508143049 61 66 2.0 4.0 0.00 0.00 0.00 59 1017.5
20260508141532 61 263 2.0 7.0 0.00 0.00 0.00 58 1017.4
20260508140022 62 4 1.0 5.0 0.00 0.00 0.00 58 1017.4
20260508134546 62 287 2.0 5.0 0.00 0.00 0.00 59 1017.5
20260508133017 62 294 0.0 6.0 0.00 0.00 0.00 60 1017.4
20260508131524 61 260 1.0 5.0 0.00 0.00 0.00 60 1017.5
20260508130026 62 53 2.0 6.0 0.00 0.00 0.00 58 1017.6
20260508124600 63 349 2.0 7.0 0.00 0.00 0.00 58 1017.5
20260508123115 62 330 2.0 10.0 0.00 0.00 0.00 58 1017.4
20260508121525 62 284 2.0 7.0 0.00 0.00 0.00 57 1017.5
20260508120056 62 91 2.0 5.0 0.00 0.00 0.00 58 1017.5
20260508114529 61 48 1.0 5.0 0.00 0.00 0.00 58 1017.6
20260508113015 61 15 0.0 7.0 0.00 0.00 0.00 61 1017.5
20260508111553 60 310 0.0 6.0 0.00 0.00 0.00 63 1017.5
20260508110007 59 254 1.0 6.0 0.00 0.00 0.00 65 1017.7
20260508104558 59 338 0.0 4.0 0.00 0.00 0.00 65 1017.7
20260508103022 59 283 1.0 5.0 0.00 0.00 0.00 65 1017.7
20260508101502 59 283 0.0 4.0 0.00 0.00 0.00 65 1017.7
20260508100039 58 356 1.0 6.0 0.00 0.00 0.00 67 1017.7
20260508094507 57 345 2.0 6.0 0.00 0.00 0.00 69 1017.8
20260508093137 58 279 2.0 5.0 0.00 0.00 0.00 67 1017.9
20260508091542 56 275 1.0 5.0 0.00 0.00 0.00 69 1017.8
20260508090001 56 322 1.0 5.0 0.00 0.00 0.00 70 1017.9
20260508084543 57 344 1.0 4.0 0.00 0.00 0.00 69 1017.7
20260508083049 55 134 0.0 4.0 0.00 0.00 0.00 72 1017.7
20260508081550 56 211 0.0 4.0 0.00 0.00 0.00 73 1017.6
20260508074604 54 212 0.0 4.0 0.00 0.00 0.00 75 1017.6
20260508073017 54 276 1.0 3.0 0.00 0.00 0.00 76 1017.5
20260508071600 54 271 0.0 3.0 0.00 0.00 0.00 76 1017.4
20260508070030 53 39 1.0 4.0 0.00 0.00 0.00 76 1017.5
20260508064603 53 231 0.0 4.0 0.00 0.00 0.00 77 1017.4
20260508063128 52 288 0.0 5.0 0.00 0.00 0.00 77 1017.3